Regional Weather Roundup
Issued by NWS

Home | Current Version | Previous Version | Graphics & Text | Print | Product List | Glossary On
Versions: 1 2 3 4 5 6 7 8 9 10 11 12 13 14 15 16 17 18 19 20 21 22 23 24 25 26 27 28 29 30 31 32 33 34 35 36 37 38 39 40 41 42 43 44 45 46 47 48 49 50
000
ASUS44 KMEG 010310
RWRTN
TENNESSEE HOURLY STATE WEATHER ROUNDUP
NATIONAL WEATHER SERVICE MEMPHIS TN
1000 PM CDT SUN AUG 31 2014

TNZ002-004-019-021-049-052-054-088>092-010400-
WEST TENNESSEE

CITY           SKY/WX    TMP DP  RH WIND       PRES   REMARKS
MEMPHIS INTL   PTCLDY    78  73  84 S9        29.99F
NWS MEMPHIS      N/A     79 N/A N/A MISG        N/A
JACKSON        CLEAR     76  73  91 S8        30.01S
DYERSBURG      PTCLDY    77  64  65 S8        29.98S
UNION CITY     CLEAR     75  73  94 S8        29.96F
PARIS          CLEAR     73  72  94 S7        30.00F
HUNTINGDON     CLEAR     74  72  93 S7        30.01S
LEXINGTON      CLEAR     75  72  88 S6        30.02F
SAVANNAH       CLEAR     75  75 100 S5        30.04F
$$

TNZ008-025-027-028-033-062-065-066-010400-
NORTH MIDDLE TENNESSEE

CITY           SKY/WX    TMP DP  RH WIND       PRES   REMARKS
NASHVILLE      PTCLDY    75  72  90 CALM      30.05S
DICKSON        CLEAR     73  72  94 S8        30.04S
PORTLAND       CLEAR     73  72  94 S7        30.04R
CLARKSVILLE    CLEAR     75  72  90 S5        30.01S
LEBANON        CLEAR     75  70  85 S6        30.04S
SMYRNA         PTCLDY    75  72  91 S6        30.06S
MURFREESBORO   CLEAR     76  71  84 S6        30.05F
COOKEVILLE     CLEAR     73  72  94 CALM      30.08S
LIVINGSTON     CLOUDY    72  71  96 SW3       30.10
GALLATIN       CLEAR     76  75  96 S3        30.05S
CROSSVILLE     CLOUDY    71  68  90 S5        30.14S
$$

TNZ061-075-076-078-094-096-097-010400-
SOUTH MIDDLE TENNESSEE

CITY           SKY/WX    TMP DP  RH WIND       PRES   REMARKS
LEWISBURG      PTCLDY    74  70  87 S6        30.07S
FAYETTEVILLE   CLEAR     72  70  94 S3        30.10S
TULLAHOMA      PTCLDY    72  70  94 CALM      30.11S
WINCHESTER     MOCLDY    73  70  88 S3        30.11S
MCMINNVILLE    CLEAR     75  73  94 SW5       30.09S
COLUMBIA         N/A     75  73  94 S3        30.05S
SHELBYVILLE    PTCLDY    75  73  94 S5        30.08F
$$

TNZ017-018-042-046-047-010400-
NORTHEAST TENNESSEE

CITY           SKY/WX    TMP DP  RH WIND       PRES   REMARKS
TRI CITIES     CLOUDY    75  70  84 S3        30.15S
ELIZABETHTON   CLEAR     70  70 100 CALM      30.17F
$$

TNZ012-013-036-069-073-074-010400-
CENTRAL EAST TENNESSEE

CITY           SKY/WX    TMP DP  RH WIND       PRES   REMARKS
KNOXVILLE      CLOUDY    72  69  90 W3        30.10F
OAK RIDGE      CLOUDY    72  70  93 CALM      30.13S
GATLINBURG     CLEAR     72  70  94 CALM      30.12S
MORRISTOWN     CLEAR     70  70 100 S3        30.13F
$$

TNZ083-085-099-010400-
SOUTHEAST TENNESSEE

CITY           SKY/WX    TMP DP  RH WIND       PRES   REMARKS
CHATTANOOGA    CLOUDY    74  72  93 SE3       30.11S
$$

SKY/WX REPORTED AS FAIR MEANS FEW OR NO CLOUDS BELOW
12 THOUSAND FEET.




USA.gov is the U.S. government's official web portal to all federal, state and local government web resources and services.